Epoch = 2012 Mar. 14.0 TT T = 2012 Apr. 3.09046 TT Peri. = 225.18966 e = 0.2670672 Node = 190.62115 2000.0 q = 3.5577279 AU Incl. = 19.24408 a = 4.8540980 AU n = 0.09215974 P = 10.69 years
m1 = 10.0 + 5 logΔ + 10.0 log r